Time,TemperatureF,DewpointF,PressureIn,WindDirection,WindDirectionDegrees,WindSpeedMPH,WindSpeedGustMPH,Humidity,HourlyPrecipIn,Conditions,Clouds,dailyrainin,SoftwareType,DateUTC
2013-04-03 00:02:00,39.0,32.0,30.24,NE,50,5.0,-999.0,75,-99.99,,,-99.99,,2013-04-03 05:02:00,
2013-04-03 00:12:00,39.0,32.0,30.23,NE,40,6.0,-999.0,75,-99.99,,,-99.99,,2013-04-03 05:12:00,
2013-04-03 00:22:00,39.0,32.0,30.23,North,10,5.0,-999.0,75,-99.99,,,-99.99,,2013-04-03 05:22:00,
2013-04-03 00:32:00,39.0,32.0,30.23,North,360,5.0,-999.0,75,-99.99,,,-99.99,,2013-04-03 05:32:00,
2013-04-03 00:42:00,39.0,32.0,30.23,North,10,5.0,-999.0,75,-99.99,,,-99.99,,2013-04-03 05:42:00,
2013-04-03 00:52:00,39.0,32.0,30.24,North,10,5.0,-999.0,75,-99.99,,,-99.99,,2013-04-03 05:52:00,
2013-04-03 01:02:00,39.0,32.0,30.24,North,10,5.0,-999.0,75,-99.99,,,-99.99,,2013-04-03 06:02:00,
2013-04-03 01:12:00,39.0,32.0,30.24,North,350,3.0,-999.0,75,-99.99,,,-99.99,,2013-04-03 06:12:00,
2013-04-03 01:22:00,39.0,32.0,30.25,North,0,0.0,-999.0,75,-99.99,,,-99.99,,2013-04-03 06:22:00,
2013-04-03 01:32:00,39.0,32.0,30.25,North,0,0.0,-999.0,75,-99.99,,,-99.99,,2013-04-03 06:32:00,
2013-04-03 01:42:00,39.0,32.0,30.25,NNW,340,3.0,-999.0,75,-99.99,,,-99.99,,2013-04-03 06:42:00,
2013-04-03 01:52:00,39.0,34.0,30.24,North,350,6.0,-999.0,80,-99.99,,,-99.99,,2013-04-03 06:52:00,
2013-04-03 02:02:00,39.0,34.0,30.24,North,350,6.0,-999.0,80,-99.99,,,-99.99,,2013-04-03 07:02:00,
2013-04-03 02:12:00,39.0,32.0,30.24,North,350,3.0,-999.0,75,-99.99,,,-99.99,,2013-04-03 07:12:00,
2013-04-03 02:23:00,39.0,32.0,30.25,North,350,5.0,-999.0,75,-99.99,,,-99.99,,2013-04-03 07:23:00,
2013-04-03 02:32:00,39.0,32.0,30.25,North,350,6.0,-999.0,75,-99.99,,,-99.99,,2013-04-03 07:32:00,
2013-04-03 02:42:00,39.0,32.0,30.25,North,350,5.0,-999.0,75,-99.99,,,-99.99,,2013-04-03 07:42:00,
2013-04-03 02:52:00,39.0,30.0,30.24,North,360,5.0,-999.0,69,-99.99,,,-99.99,,2013-04-03 07:52:00,
2013-04-03 03:03:00,39.0,30.0,30.24,North,360,5.0,-999.0,69,-99.99,,,-99.99,,2013-04-03 08:03:00,
2013-04-03 03:12:00,39.0,30.0,30.24,NNE,20,6.0,-999.0,69,-99.99,,,-99.99,,2013-04-03 08:12:00,
2013-04-03 03:22:00,39.0,30.0,30.23,NNE,20,6.0,-999.0,69,-99.99,,,-99.99,,2013-04-03 08:22:00,
2013-04-03 03:32:00,39.0,30.0,30.23,North,10,5.0,-999.0,69,-99.99,,,-99.99,,2013-04-03 08:32:00,
2013-04-03 03:42:00,39.0,30.0,30.23,North,10,6.0,-999.0,69,-99.99,,,-99.99,,2013-04-03 08:42:00,
2013-04-03 03:52:00,39.0,30.0,30.22,NNE,20,7.0,-999.0,69,-99.99,,,-99.99,,2013-04-03 08:52:00,
2013-04-03 04:02:00,39.0,30.0,30.22,NNE,20,7.0,-999.0,69,-99.99,,,-99.99,,2013-04-03 09:02:00,
2013-04-03 04:12:00,39.0,30.0,30.23,NNE,20,6.0,-999.0,69,-99.99,,,-99.99,,2013-04-03 09:12:00,
2013-04-03 04:22:00,39.0,30.0,30.22,NNE,30,8.0,-999.0,69,-99.99,,,-99.99,,2013-04-03 09:22:00,
2013-04-03 04:33:00,39.0,30.0,30.22,NNE,30,7.0,-999.0,69,-99.99,,,-99.99,,2013-04-03 09:33:00,
2013-04-03 04:43:00,39.0,30.0,30.22,NE,40,7.0,-999.0,69,-99.99,,,-99.99,,2013-04-03 09:43:00,
2013-04-03 04:52:00,39.0,30.0,30.22,NNE,30,6.0,-999.0,69,-99.99,,,-99.99,,2013-04-03 09:52:00,
2013-04-03 05:03:00,39.0,30.0,30.22,NNE,30,6.0,-999.0,69,-99.99,,,-99.99,,2013-04-03 10:03:00,
2013-04-03 05:12:00,39.0,30.0,30.22,NNE,30,7.0,-999.0,69,-99.99,,,-99.99,,2013-04-03 10:12:00,
2013-04-03 05:22:00,39.0,30.0,30.22,NNE,30,7.0,-999.0,69,-99.99,,,-99.99,,2013-04-03 10:22:00,
2013-04-03 05:33:00,39.0,30.0,30.22,NNE,30,8.0,-999.0,69,-99.99,,,-99.99,,2013-04-03 10:33:00,
2013-04-03 05:42:00,39.0,30.0,30.22,NNE,30,7.0,-999.0,69,-99.99,,,-99.99,,2013-04-03 10:42:00,
2013-04-03 05:52:00,39.0,30.0,30.22,NNE,30,7.0,-999.0,69,-99.99,,,-99.99,,2013-04-03 10:52:00,
2013-04-03 06:02:00,39.0,30.0,30.22,NNE,30,7.0,-999.0,69,-99.99,,,-99.99,,2013-04-03 11:02:00,
2013-04-03 06:12:00,39.0,30.0,30.23,NNE,20,7.0,-999.0,69,-99.99,,,-99.99,,2013-04-03 11:12:00,
2013-04-03 06:22:00,39.0,32.0,30.23,NNE,20,7.0,-999.0,75,-99.99,,,-99.99,,2013-04-03 11:22:00,
2013-04-03 06:32:00,39.0,32.0,30.23,NNE,20,7.0,-999.0,75,-99.99,,,-99.99,,2013-04-03 11:32:00,
2013-04-03 06:42:00,39.0,32.0,30.23,NNE,30,9.0,-999.0,75,-99.99,,,-99.99,,2013-04-03 11:42:00,
2013-04-03 06:52:00,39.0,32.0,30.23,NNE,30,9.0,-999.0,75,-99.99,,,-99.99,,2013-04-03 11:52:00,
2013-04-03 07:02:00,39.0,32.0,30.23,NNE,30,9.0,-999.0,75,-99.99,,,-99.99,,2013-04-03 12:02:00,
2013-04-03 07:12:00,39.0,32.0,30.23,NE,40,9.0,-999.0,75,-99.99,,,-99.99,,2013-04-03 12:12:00,
2013-04-03 07:22:00,39.0,30.0,30.24,NE,50,7.0,-999.0,69,-99.99,,,-99.99,,2013-04-03 12:22:00,
2013-04-03 07:32:00,39.0,30.0,30.24,NE,50,10.0,-999.0,69,-99.99,,,-99.99,,2013-04-03 12:32:00,
2013-04-03 07:42:00,39.0,30.0,30.25,NE,50,9.0,-999.0,69,-99.99,,,-99.99,,2013-04-03 12:42:00,
2013-04-03 07:52:00,39.0,30.0,30.26,NE,50,9.0,-999.0,69,-99.99,,,-99.99,,2013-04-03 12:52:00,
2013-04-03 08:02:00,39.0,30.0,30.26,NE,50,9.0,-999.0,69,-99.99,,,-99.99,,2013-04-03 13:02:00,
2013-04-03 08:12:00,39.0,30.0,30.27,NE,50,7.0,-999.0,69,-99.99,,,-99.99,,2013-04-03 13:12:00,
2013-04-03 08:22:00,39.0,30.0,30.27,NE,50,9.0,-999.0,69,-99.99,,,-99.99,,2013-04-03 13:22:00,
2013-04-03 08:32:00,39.0,30.0,30.27,NE,50,10.0,-999.0,69,-99.99,,,-99.99,,2013-04-03 13:32:00,
2013-04-03 08:42:00,39.0,30.0,30.27,NE,50,9.0,-999.0,69,-99.99,,,-99.99,,2013-04-03 13:42:00,
2013-04-03 08:52:00,39.0,30.0,30.27,ENE,60,7.0,-999.0,69,-99.99,,,-99.99,,2013-04-03 13:52:00,
2013-04-03 09:02:00,39.0,30.0,30.27,ENE,60,7.0,-999.0,69,-99.99,,,-99.99,,2013-04-03 14:02:00,
2013-04-03 09:12:00,39.0,30.0,30.30,ESE,120,7.0,-999.0,69,-99.99,,,-99.99,,2013-04-03 14:12:00,
2013-04-03 09:22:00,34.0,32.0,30.31,SE,130,10.0,-999.0,93,-99.99,,,-99.99,,2013-04-03 14:22:00,
2013-04-03 09:32:00,34.0,32.0,30.31,ESE,120,8.0,-999.0,93,-99.99,,,-99.99,,2013-04-03 14:32:00,
2013-04-03 09:42:00,34.0,34.0,30.32,ESE,120,7.0,-999.0,100,-99.99,,,-99.99,,2013-04-03 14:42:00,
2013-04-03 09:52:00,34.0,34.0,30.31,ENE,70,6.0,-999.0,100,-99.99,,,-99.99,,2013-04-03 14:52:00,
2013-04-03 10:02:00,34.0,34.0,30.31,ENE,70,6.0,-999.0,100,-99.99,,,-99.99,,2013-04-03 15:02:00,
2013-04-03 10:12:00,34.0,34.0,30.31,ENE,70,6.0,-999.0,100,-99.99,,,-99.99,,2013-04-03 15:12:00,
2013-04-03 10:23:00,34.0,34.0,30.32,East,90,7.0,-999.0,100,-99.99,,,-99.99,,2013-04-03 15:23:00,
2013-04-03 10:33:00,34.0,34.0,30.32,East,100,8.0,-999.0,100,-99.99,,,-99.99,,2013-04-03 15:33:00,
2013-04-03 10:42:00,34.0,34.0,30.32,East,90,8.0,-999.0,100,-99.99,,,-99.99,,2013-04-03 15:42:00,
2013-04-03 10:53:00,34.0,34.0,30.32,ENE,70,5.0,-999.0,100,-99.99,,,-99.99,,2013-04-03 15:53:00,
2013-04-03 11:03:00,34.0,34.0,30.32,ENE,70,5.0,-999.0,100,-99.99,,,-99.99,,2013-04-03 16:03:00,
2013-04-03 11:12:00,34.0,34.0,30.32,ENE,60,5.0,-999.0,100,-99.99,,,-99.99,,2013-04-03 16:12:00,
2013-04-03 11:23:00,34.0,34.0,30.32,NE,40,6.0,-999.0,100,-99.99,,,-99.99,,2013-04-03 16:23:00,
2013-04-03 11:32:00,36.0,34.0,30.32,NE,40,8.0,-999.0,93,-99.99,,,-99.99,,2013-04-03 16:32:00,
2013-04-03 11:43:00,36.0,34.0,30.32,NNE,30,7.0,-999.0,93,-99.99,,,-99.99,,2013-04-03 16:43:00,
2013-04-03 11:52:00,36.0,34.0,30.32,NE,40,7.0,-999.0,93,-99.99,,,-99.99,,2013-04-03 16:52:00,
2013-04-03 12:03:00,36.0,34.0,30.32,NE,40,7.0,-999.0,93,-99.99,,,-99.99,,2013-04-03 17:03:00,
2013-04-03 12:13:00,36.0,34.0,30.31,NE,40,7.0,-999.0,93,-99.99,,,-99.99,,2013-04-03 17:13:00,
2013-04-03 12:22:00,36.0,34.0,30.31,NNE,30,9.0,-999.0,93,-99.99,,,-99.99,,2013-04-03 17:22:00,
2013-04-03 12:33:00,36.0,34.0,30.31,NNE,20,8.0,-999.0,93,-99.99,,,-99.99,,2013-04-03 17:33:00,
2013-04-03 12:45:00,36.0,34.0,30.31,NNE,30,8.0,-999.0,93,-99.99,,,-99.99,,2013-04-03 17:45:00,
2013-04-03 12:53:00,36.0,34.0,30.31,NE,40,9.0,-999.0,93,-99.99,,,-99.99,,2013-04-03 17:53:00,
2013-04-03 13:02:00,36.0,34.0,30.31,NE,40,9.0,-999.0,93,-99.99,,,-99.99,,2013-04-03 18:02:00,
2013-04-03 13:12:00,36.0,36.0,30.31,NE,50,8.0,-999.0,100,-99.99,,,-99.99,,2013-04-03 18:12:00,
2013-04-03 13:22:00,36.0,34.0,30.31,NE,40,10.0,-999.0,93,-99.99,,,-99.99,,2013-04-03 18:22:00,
2013-04-03 13:33:00,36.0,34.0,30.31,NE,50,9.0,-999.0,93,-99.99,,,-99.99,,2013-04-03 18:33:00,
2013-04-03 13:42:00,36.0,34.0,30.31,NE,50,8.0,-999.0,93,-99.99,,,-99.99,,2013-04-03 18:42:00,
2013-04-03 13:52:00,36.0,34.0,30.31,NE,50,8.0,-999.0,93,-99.99,,,-99.99,,2013-04-03 18:52:00,
2013-04-03 14:02:00,36.0,34.0,30.31,NE,50,8.0,-999.0,93,-99.99,,,-99.99,,2013-04-03 19:02:00,
2013-04-03 14:12:00,36.0,36.0,30.30,NE,40,8.0,-999.0,100,-99.99,,,-99.99,,2013-04-03 19:12:00,
2013-04-03 14:22:00,36.0,36.0,30.29,NE,40,8.0,-999.0,100,-99.99,,,-99.99,,2013-04-03 19:22:00,
2013-04-03 14:32:00,36.0,36.0,30.29,NE,40,8.0,-999.0,100,-99.99,,,-99.99,,2013-04-03 19:32:00,
2013-04-03 14:42:00,37.0,36.0,30.29,NE,50,8.0,-999.0,93,-99.99,,,-99.99,,2013-04-03 19:42:00,
2013-04-03 14:52:00,37.0,36.0,30.28,NE,50,8.0,-999.0,93,-99.99,,,-99.99,,2013-04-03 19:52:00,
2013-04-03 15:02:00,37.0,36.0,30.28,NE,50,8.0,-999.0,93,-99.99,,,-99.99,,2013-04-03 20:02:00,
2013-04-03 15:12:00,37.0,36.0,30.27,NE,40,6.0,-999.0,93,-99.99,,,-99.99,,2013-04-03 20:12:00,
2013-04-03 15:22:00,37.0,36.0,30.27,NE,40,8.0,-999.0,93,-99.99,,,-99.99,,2013-04-03 20:22:00,
2013-04-03 15:32:00,37.0,36.0,30.27,NE,40,6.0,-999.0,93,-99.99,,,-99.99,,2013-04-03 20:32:00,
2013-04-03 15:42:00,37.0,36.0,30.27,NE,50,6.0,-999.0,93,-99.99,,,-99.99,,2013-04-03 20:42:00,
2013-04-03 15:52:00,37.0,36.0,30.26,NE,40,7.0,-999.0,93,-99.99,,,-99.99,,2013-04-03 20:52:00,
2013-04-03 16:02:00,37.0,36.0,30.26,NE,40,7.0,-999.0,93,-99.99,,,-99.99,,2013-04-03 21:02:00,
2013-04-03 16:12:00,37.0,36.0,30.25,ENE,60,6.0,-999.0,93,-99.99,,,-99.99,,2013-04-03 21:12:00,
2013-04-03 16:22:00,37.0,36.0,30.25,ENE,60,7.0,-999.0,93,-99.99,,,-99.99,,2013-04-03 21:22:00,
2013-04-03 16:32:00,37.0,36.0,30.25,ENE,60,7.0,-999.0,93,-99.99,,,-99.99,,2013-04-03 21:32:00,
2013-04-03 16:42:00,37.0,36.0,30.24,ENE,70,7.0,-999.0,93,-99.99,,,-99.99,,2013-04-03 21:42:00,
2013-04-03 16:52:00,39.0,36.0,30.23,ENE,60,9.0,-999.0,86,-99.99,,,-99.99,,2013-04-03 21:52:00,
2013-04-03 17:02:00,39.0,36.0,30.23,ENE,60,9.0,-999.0,86,-99.99,,,-99.99,,2013-04-03 22:02:00,
2013-04-03 17:12:00,39.0,36.0,30.23,ENE,70,9.0,-999.0,86,-99.99,,,-99.99,,2013-04-03 22:12:00,
2013-04-03 17:22:00,39.0,37.0,30.23,East,80,7.0,-999.0,93,-99.99,,,-99.99,,2013-04-03 22:22:00,
2013-04-03 17:32:00,39.0,37.0,30.23,East,80,6.0,-999.0,93,-99.99,,,-99.99,,2013-04-03 22:32:00,
2013-04-03 17:42:00,39.0,37.0,30.23,East,80,7.0,-999.0,93,-99.99,,,-99.99,,2013-04-03 22:42:00,
2013-04-03 17:52:00,39.0,36.0,30.23,East,90,7.0,-999.0,86,-99.99,,,-99.99,,2013-04-03 22:52:00,
2013-04-03 18:02:00,39.0,36.0,30.23,East,90,7.0,-999.0,86,-99.99,,,-99.99,,2013-04-03 23:02:00,
2013-04-03 18:12:00,39.0,36.0,30.23,East,80,7.0,-999.0,86,-99.99,,,-99.99,,2013-04-03 23:12:00,
2013-04-03 18:22:00,39.0,36.0,30.23,East,100,7.0,-999.0,86,-99.99,,,-99.99,,2013-04-03 23:22:00,
2013-04-03 18:32:00,39.0,36.0,30.23,East,90,8.0,-999.0,86,-99.99,,,-99.99,,2013-04-03 23:32:00,
2013-04-03 18:42:00,39.0,36.0,30.23,East,90,7.0,-999.0,86,-99.99,,,-99.99,,2013-04-03 23:42:00,
2013-04-03 18:53:00,39.0,36.0,30.23,East,90,6.0,-999.0,86,-99.99,,,-99.99,,2013-04-03 23:53:00,
2013-04-03 19:02:00,39.0,36.0,30.23,East,90,6.0,-999.0,86,-99.99,,,-99.99,,2013-04-04 00:02:00,
2013-04-03 19:12:00,39.0,36.0,30.24,East,90,7.0,-999.0,86,-99.99,,,-99.99,,2013-04-04 00:12:00,
2013-04-03 19:22:00,39.0,36.0,30.24,East,100,6.0,-999.0,86,-99.99,,,-99.99,,2013-04-04 00:22:00,
2013-04-03 19:32:00,39.0,36.0,30.24,ESE,110,7.0,-999.0,86,-99.99,,,-99.99,,2013-04-04 00:32:00,
2013-04-03 19:43:00,39.0,36.0,30.23,East,100,6.0,-999.0,86,-99.99,,,-99.99,,2013-04-04 00:43:00,
2013-04-03 19:52:00,39.0,36.0,30.23,East,80,5.0,-999.0,86,-99.99,,,-99.99,,2013-04-04 00:52:00,
2013-04-03 20:02:00,39.0,36.0,30.23,East,80,5.0,-999.0,86,-99.99,,,-99.99,,2013-04-04 01:02:00,
2013-04-03 20:12:00,39.0,36.0,30.24,North,0,0.0,-999.0,86,-99.99,,,-99.99,,2013-04-04 01:12:00,
2013-04-03 20:22:00,39.0,36.0,30.24,East,80,3.0,-999.0,86,-99.99,,,-99.99,,2013-04-04 01:22:00,
2013-04-03 20:32:00,39.0,36.0,30.23,NE,50,5.0,-999.0,86,-99.99,,,-99.99,,2013-04-04 01:32:00,
2013-04-03 20:43:00,39.0,36.0,30.23,ENE,60,5.0,-999.0,86,-99.99,,,-99.99,,2013-04-04 01:43:00,
2013-04-03 20:52:00,37.0,36.0,30.24,ENE,70,5.0,-999.0,93,-99.99,,,-99.99,,2013-04-04 01:52:00,
2013-04-03 21:02:00,37.0,36.0,30.24,ENE,70,5.0,-999.0,93,-99.99,,,-99.99,,2013-04-04 02:02:00,
2013-04-03 21:12:00,37.0,36.0,30.24,ENE,60,5.0,-999.0,93,-99.99,,,-99.99,,2013-04-04 02:12:00,
2013-04-03 21:22:00,37.0,36.0,30.24,ENE,60,3.0,-999.0,93,-99.99,,,-99.99,,2013-04-04 02:22:00,
2013-04-03 21:32:00,37.0,36.0,30.25,NNE,30,3.0,-999.0,93,-99.99,,,-99.99,,2013-04-04 02:32:00,
2013-04-03 21:42:00,37.0,36.0,30.25,NNE,30,3.0,-999.0,93,-99.99,,,-99.99,,2013-04-04 02:42:00,
2013-04-03 21:52:00,37.0,36.0,30.25,NNE,30,3.0,-999.0,93,-99.99,,,-99.99,,2013-04-04 02:52:00,
2013-04-03 22:02:00,37.0,36.0,30.25,North,10,3.0,-999.0,93,-99.99,,,-99.99,,2013-04-04 03:02:00,
2013-04-03 22:12:00,37.0,36.0,30.26,North,10,3.0,-999.0,93,-99.99,,,-99.99,,2013-04-04 03:12:00,
2013-04-03 22:22:00,37.0,36.0,30.25,North,10,5.0,-999.0,93,-99.99,,,-99.99,,2013-04-04 03:22:00,
2013-04-03 22:33:00,37.0,36.0,30.25,North,360,5.0,-999.0,93,-99.99,,,-99.99,,2013-04-04 03:33:00,
2013-04-03 22:43:00,37.0,36.0,30.25,North,360,3.0,-999.0,93,-99.99,,,-99.99,,2013-04-04 03:43:00,
2013-04-03 22:53:00,37.0,36.0,30.25,North,360,3.0,-999.0,93,-99.99,,,-99.99,,2013-04-04 03:53:00,
2013-04-03 23:03:00,37.0,36.0,30.25,North,360,3.0,-999.0,93,-99.99,,,-99.99,,2013-04-04 04:03:00,
2013-04-03 23:12:00,37.0,36.0,30.25,North,350,5.0,-999.0,93,-99.99,,,-99.99,,2013-04-04 04:12:00,
2013-04-03 23:23:00,37.0,36.0,30.25,North,350,5.0,-999.0,93,-99.99,,,-99.99,,2013-04-04 04:23:00,
2013-04-03 23:33:00,37.0,36.0,30.25,North,360,3.0,-999.0,93,-99.99,,,-99.99,,2013-04-04 04:33:00,
2013-04-03 23:43:00,37.0,36.0,30.24,North,360,3.0,-999.0,93,-99.99,,,-99.99,,2013-04-04 04:43:00,
2013-04-03 23:52:00,37.0,36.0,30.24,North,350,5.0,-999.0,93,-99.99,,,-99.99,,2013-04-04 04:52:00,